"Pseudo-MPEC" for ZKA8EB3

Created 2018 May 19 19:18:18 UT using Find_Orb

Click here for an explanation of pseudo-MPECs

 
 Astrometry: 
     ZKA8EB3  C2018 05 17.33896 16 13 06.59 +02 35 19.9          21.5 GUNEOCPG96
     ZKA8EB3  C2018 05 17.34420 16 13 03.72 +02 35 40.6          20.7 GUNEOCPG96
     ZKA8EB3  C2018 05 17.34947 16 13 00.67 +02 36 00.4          21.3 GUNEOCPG96
     ZKA8EB3  C2018 05 17.35473 16 12 57.69 +02 36 20.6          21.2 GUNEOCPG96
     ZKA8EB3  C2018 05 17.37765 16 12 44.75 +02 37 49.5          21.1 GUNEOCPI52
     ZKA8EB3  C2018 05 17.37987 16 12 43.49 +02 37 58.6          21.4 GUNEOCPI52
     ZKA8EB3  C2018 05 17.38098 16 12 42.87 +02 38 02.8          20.4 GUNEOCPI52
     ZKA8EB3  C2018 05 17-]AstrometryUWs(Cliva7B.sP?G(!/D:jH88*_kelOA##FHlw0]H01
     ZKA8EB3  C2018 05 17sVI7WQlAua1wSI\8o!^xBb.Il_3*X+:(vL3Bmc)$:7'v)PxhNtPOH01
     ZKA8EB3  C2018 05 17t8RAR?%0$?lTEvlCZJ]qR4T\fB1`L:5?l0qe5[i.NCT.sFQSqh$#H01
     ZKA8EB3  C2018 05 17Y_hUJO(d!VNru=SdK[aYC[NhQ=m.?mb[rkc\/dm76hTD-YYn9#)sH01
     ZKA8EB3  C2018 05 18+LJH?XBy%*ZwuxZ^'redacted;uSo)QVb0%!3.t?ZDASV=R6GggvH01
     ZKA8EB3  C2018 05 18e!Z'(/4x8eT!vYcBQ\VOXd,upvC]cse.*m=rE0^T1Z3gw/Z@H8*TH01
     ZKA8EB3  C2018 05 183*08m^:XlxLcqqs/K*C9L@DTBlFL4'*D?x\30N2\8].1F3piv/)@H01
     ZKA8EB3  C2018 05 18KgdRgx3LwR$Y?4.+qBYehl[WMWAVR_[?#g,2S,62Kt1vNTU:B!uTH01
     ZKA8EB3  C2018 05 18.29142 16 04 58.07 +03 38 01.8          20.9 GUNEOCPI52
     ZKA8EB3  C2018 05 18.29682 16 04 54.83 +03 38 23.4          20.5 GUNEOCPI52
     ZKA8EB3  C2018 05 18.30223 16 04 51.65 +03 38 45.3          20.6 GUNEOCPI52
     ZKA8EB3  C2018 05 18.30554 16 04 49.62 +03 38 58.8          20.3 GUNEOCPI52
     ZKA8EB3 KC2018 05 18N-O^_4t$k;dGwg3(8an46HCPDE%RM2'fKo:OaUn.KE/N2v0K7$9ML01
     ZKA8EB3 KC2018 05 18]W%\]WcI_Ou.CJoyrXJ=ARP=cUTAn\HQsee9'3v^wFwu`JEU#rgML01
     ZKA8EB3 KC2018 05 185.Z?KwtZriptt/!b`:_`7?[QCZ-FRtNB].a._\BW%8RySabm_t]6L01
     ZKA8EB3 |C2018 05 19=qwdJLlF/T-q9CnJH`Hb0c$Wdp^=aU58s9de_M?Fy2jG78-9:p#$807
     ZKA8EB3 |C2018 05 19N5BU+ZLFia_cT#(m+:*4*QKv8?k.vo]1klq%=nZWh`\1bPoP4V08807
     ZKA8EB3 |C2018 05 19OU!KJ8]o^Ttqi6NF%.`;skhS%BciZ8E5cIM?e.mhZ\X.]7pNEOCP807
     ZKA8EB3  C2018 05 19.32572 15 55 28.55 +04 48 40.5          20.9 GUNEOCPI52
     ZKA8EB3  C2018 05 19.32738 15 55 27.48 +04 48 47.0          20.6 GUNEOCPI52
     ZKA8EB3  C2018 05 19.32904 15 55 26.44 +04 48 53.7          20.7 GUNEOCPI52
     ZKA8EB3  C2018 05 19.33071 15 55 25.39 +04 49 00.9          21.0 GUNEOCPI52

Station data:
(807) Cerro Tololo Observatory, La Serena  (S30.169136 W70.805900)  Chile.
   Observers M. Holman, J. Kavelaars, T. Grav, W. Fraser. Measurer M. Holman.
   4-m Blanco reflector + CCD.
(G96) Mt. Lemmon Survey  (N32.442754 W110.788720)  US/Arizona.  Observers E.
   J. Christensen, A. R. Gibbs, A. D. Grauer, R. E. Hill, J. A. Johnson, R.
   A. Kowalski, S. M. Larson, F. C. Shelly. 1.5-m reflector + CCD.
(H01) Magdalena Ridge Observatory, Socorro  (N33.985151 W107.189200)  US/New
   Mexico.  Observers W. H. Ryan, E. V. Ryan. Measurer W. H. Ryan. 2.4-m
   f/8.9 reflector + CCD.
(I52) Steward Observatory, Mt. Lemmon Station  (N32.442547 W110.788920)
   US/Arizona.
(L01) Višnjan Observatory, Tičan  (N45.290900 E13.749300)  Croatia.

Orbital elements:  ZKA8EB3
   Perihelion 2018 Sep 24.599234 +/- 0.0627 TT = 14:22:53 (JD 2458386.099234)
Epoch 2018 May 19.0 TT = JDT 2458257.5   Earth MOID: 0.0118   Ve: 0.0085
M 207.51267 +/- 0.046               (J2000 ecliptic)          AutoNEOCP
n   1.18575609 +/- 0.000264         Peri.  263.52050 +/- 0.11
a   0.88404113 +/- 0.000131         Node   135.58682 +/- 0.13
e   0.2090881 +/- 0.000307          Incl.    1.07671 +/- 0.0018
P   0.83/303.60d           H 26.6   G  0.15   U  7.2  
q 0.69919864 +/- 0.000374    Q 1.06888362 +/- 0.000117
From 29 observations 2018 May 17-19 (47.8 hr); mean residual 0".45
Residuals in arcseconds: 
180517 G96  .08-  .11-    180517 H01  .16+  .18+    180518 L01  .19+  .04-    
180517 G96  1.2+  .29+    180518 H01  .55+  .25-    180518 L01  .60+  .58-    
180517 G96  .06+  .31-    180518 H01  .48+  .28-    180519 807  .17+  .38-    
180517 G96  .13-  .48-    180518 H01  .54+  .27-    180519 807  .03-  .12-    
180517 I52  .46-  .29-    180518 H01  .34+  .01-    180519 807  .13+  .09-    
180517 I52  .62-  .22+    180518 I52  .86-  .38+    180519 I52  .26-  .51+    
180517 I52  .55-  .13+    180518 I52  1.2-  .18+    180519 I52  .55-  .10+    
180517 H01  .14+  .46+    180518 I52  .47-  .25+    180519 I52  .40-  .11-    
180517 H01  .12+  .04+    180518 I52  1.3-  .40+    180519 I52  .30-  .13+    
180517 H01  .03+  .10+    180518 L01  .72+  .62+    

Ephemerides (geocentric):
Date (UTC) HH   RA              Dec         delta   r     elong  mag " sig PA
---- -- -- --  ------------   ------------  ------ ------ -----  --- ---- ---
2018 05 19 19  15 51 02.690   +05 22 43.78  .04577 1.0534 154.8 21.1  .16 125
2018 05 19 20  15 50 38.498   +05 25 40.02  .04572 1.0533 154.7 21.1  .18 126
2018 05 19 21  15 50 14.249   +05 28 36.47  .04567 1.0533 154.7 21.1  .20 126
2018 05 19 22  15 49 49.944   +05 31 33.13  .04562 1.0532 154.6 21.1  .22 126
2018 05 19 23  15 49 25.584   +05 34 29.99  .04557 1.0531 154.5 21.1  .24 126
2018 05 20 00  15 49 01.166   +05 37 27.06  .04552 1.0531 154.5 21.1  .26 126
2018 05 20 01  15 48 36.693   +05 40 24.33  .04547 1.0530 154.4 21.1  .28 126
2018 05 20 02  15 48 12.164   +05 43 21.80  .04542 1.0530 154.4 21.1  .30 126
2018 05 20 03  15 47 47.578   +05 46 19.46  .04537 1.0529 154.3 21.1  .33 126
2018 05 20 04  15 47 22.937   +05 49 17.33  .04533 1.0529 154.3 21.1  .35 126
2018 05 20 05  15 46 58.240   +05 52 15.38  .04528 1.0528 154.2 21.1  .37 126
2018 05 20 06  15 46 33.487   +05 55 13.63  .04523 1.0528 154.2 21.1  .40 126
2018 05 20 07  15 46 08.678   +05 58 12.07  .04518 1.0527 154.1 21.1  .42 126
2018 05 20 08  15 45 43.813   +06 01 10.70  .04514 1.0527 154.0 21.1  .45 126
2018 05 20 09  15 45 18.892   +06 04 09.52  .04509 1.0526 154.0 21.1  .48 126
2018 05 20 10  15 44 53.916   +06 07 08.52  .04504 1.0525 153.9 21.1  .50 126
2018 05 20 11  15 44 28.884   +06 10 07.70  .04499 1.0525 153.9 21.1  .53 125
2018 05 20 12  15 44 03.796   +06 13 07.07  .04495 1.0524 153.8 21.1  .56 125
2018 05 20 13  15 43 38.653   +06 16 06.61  .04490 1.0524 153.7 21.1  .59 125
2018 05 20 14  15 43 13.455   +06 19 06.33  .04486 1.0523 153.7 21.1  .62 125
2018 05 20 15  15 42 48.201   +06 22 06.23  .04481 1.0523 153.6 21.1  .65 125
2018 05 20 16  15 42 22.892   +06 25 06.29  .04476 1.0522 153.5 21.1  .68 125
2018 05 20 17  15 41 57.527   +06 28 06.53  .04472 1.0522 153.5 21.1  .71 125
2018 05 20 18  15 41 32.108   +06 31 06.94  .04467 1.0521 153.4 21.1  .74 125
2018 05 20 19  15 41 06.633   +06 34 07.51  .04463 1.0520 153.3 21.1  .77 125
2018 05 20 20  15 40 41.103   +06 37 08.25  .04458 1.0520 153.3 21.1  .81 125
2018 05 20 21  15 40 15.518   +06 40 09.15  .04454 1.0519 153.2 21.1  .84 125
2018 05 20 22  15 39 49.879   +06 43 10.22  .04449 1.0519 153.1 21.1  .87 124
2018 05 20 23  15 39 24.184   +06 46 11.43  .04445 1.0518 153.0 21.1  .91 124
2018 05 21 00  15 38 58.435   +06 49 12.81  .04441 1.0518 153.0 21.1  .95 124
2018 05 21 01  15 38 32.631   +06 52 14.34  .04436 1.0517 152.9 21.1  .98 124
2018 05 21 02  15 38 06.773   +06 55 16.02  .04432 1.0517 152.8 21.1  1.0 124
2018 05 21 03  15 37 40.859   +06 58 17.85  .04428 1.0516 152.7 21.1  1.1 124
2018 05 21 04  15 37 14.892   +07 01 19.82  .04423 1.0515 152.7 21.1  1.1 124
2018 05 21 05  15 36 48.870   +07 04 21.94  .04419 1.0515 152.6 21.1  1.1 124
2018 05 21 06  15 36 22.794   +07 07 24.21  .04415 1.0514 152.5 21.1  1.2 124
2018 05 21 07  15 35 56.664   +07 10 26.61  .04410 1.0514 152.4 21.1  1.2 124
2018 05 21 08  15 35 30.480   +07 13 29.15  .04406 1.0513 152.4 21.1  1.3 124
2018 05 21 09  15 35 04.242   +07 16 31.83  .04402 1.0513 152.3 21.1  1.3 123
2018 05 21 10  15 34 37.950   +07 19 34.64  .04398 1.0512 152.2 21.1  1.3 123
2018 05 21 11  15 34 11.604   +07 22 37.57  .04394 1.0511 152.1 21.1  1.4 123
2018 05 21 12  15 33 45.204   +07 25 40.64  .04390 1.0511 152.0 21.1  1.4 123
2018 05 21 13  15 33 18.751   +07 28 43.84  .04385 1.0510 152.0 21.1  1.5 123
2018 05 21 14  15 32 52.244   +07 31 47.15  .04381 1.0510 151.9 21.1  1.5 123
2018 05 21 15  15 32 25.685   +07 34 50.59  .04377 1.0509 151.8 21.1  1.6 123
2018 05 21 16  15 31 59.071   +07 37 54.15  .04373 1.0509 151.7 21.1  1.6 123
2018 05 21 17  15 31 32.405   +07 40 57.82  .04369 1.0508 151.6 21.1  1.7 123
2018 05 21 18  15 31 05.686   +07 44 01.60  .04365 1.0507 151.5 21.1  1.7 123